Hourly Data Report for January 29, 2020

CARBERRY CS
MANITOBA
Current Station Operator: ECCC - MSC

49°54'20.900" N
99°21'26.800" W
383.50 m
5010547
71170
WZE

Download Data

Hourly Data (January 2020)
Hourly Data Report for January 29, 2020
TIME
LST
Temp Definition
°C
Dew Point Definition
°C
Rel Hum Definition
%
Precip. Amount Definition
mm

Wind Dir Definition
10's deg

Wind Spd Definition
km/h
Visibility Definition
km
Stn Press Definition
kPa
Hmdx Definition


Wind Chill Definition


Weather Definition


00:00 -11.1 -12.3 91 0.0 8 6   97.30   -15 LegendNANA
01:00 -11.1 -12.3 91 0.2 8 5   97.31   -14 LegendNANA
02:00 -11.0 -12.2 91 0.0 8 5   97.34   -14 LegendNANA
03:00 -11.0 -12.2 91 0.0 6 5   97.34   -14 LegendNANA
04:00 -11.2 -12.4 91 0.0 6 7   97.32   -15 LegendNANA
05:00 -11.1 -12.3 91 0.0 8 5   97.36   -14 LegendNANA
06:00 -11.0 -12.1 91 0.2 5 1   97.42   -12 LegendNANA
07:00 -10.9 -12.0 91 0.0 4 4   97.39   -13 LegendNANA
08:00 -10.9 -12.0 91 0.0 6 6   97.37   -15 LegendNANA
09:00 -10.8 -11.9 91 0.0 9 4   97.44   -13 LegendNANA
10:00 -10.2 -11.4 91 0.0 7 2   97.45   -11 LegendNANA
11:00 -9.9 -11.2 90 0.0 5 4   97.45   -12 LegendNANA
12:00 -9.6 -10.8 91 0.0 30 3   97.45   -11 LegendNANA
13:00 -8.9 -9.8 93 0.0   0   97.37     LegendNANA
14:00 -9.1 -10.1 92 0.0 36 4   97.31   -11 LegendNANA
15:00 -8.8 -9.7 93 0.0 3 4   97.28   -11 LegendNANA
16:00 -8.6 -9.4 94 0.0 1 4   97.30   -11 LegendNANA
17:00 -8.5 -9.2 95 0.0 36 5   97.33   -11 LegendNANA
18:00 -8.4 -9.1 95 0.0 5 5   97.31   -11 LegendNANA
19:00 -8.7 -9.4 95 0.0 9 6   97.29   -12 LegendNANA
20:00 -8.8 -9.5 94 0.0 9 6   97.27   -12 LegendNANA
21:00 -8.9 -9.6 94 0.0 9 4   97.25   -11 LegendNANA
22:00 -8.9 -9.6 94 0.0 9 3   97.20   -11 LegendNANA
23:00 -8.8 -9.5 94 0.0 10 3   97.16   -10 LegendNANA

Notes on Data Quality.

Legend

  • E = Estimated
  • M = Missing
  • NA = Not Available*
  • [empty] = Indicates an unobserved value
Date modified: